DELTA 1 DEB, 27577

Orbit data source: Space-Track

DELTA 1 DEB, 27577 is space debris in SSO originally from a launch on Thu, 12 Jun 1975 UTC launched from the Air Force Western Test Range (AFWTR). Debris objects in space refer to the collection of defunct objects orbiting the Earth. Examples of debris include non-operational satellites, rocket bodies, and fragments generated from explosions, collisions, or faulty payload assembly.

Loading next visibility...
Identifier
27577, 1975-052LE
Orbit
SSO
Country
Flag of USUS
Related business
Manufacturer
Unknown
Mission
Spacecraft
Bus & Motor
Unknown
Mass
Unknown
Launch date (UTC)
1975-06-12 (51 years ago)
Launch vehicle
Unknown
Launch site
Air Force Western Test Range (AFWTR)
Object type
Payload
Rocket body
Debris
Shape & HBR
Unknown shape, 0.1 m
Radar Cross Section
Small (<0.1 m²)

Expand to show TLE details & history
Last TLE update: 1 day ago

TLE from 1 day ago
0 DELTA 1 DEB
1 27577U 75052LE  25350.15150766  .00000599  00000-0  10259-2 0  9995
2 27577  99.1033 227.7870 0076959 131.7110  20.5064 13.47391718512906
Epoch: 2025-12-16T03:38Z
TLE epoch observation values (Epoch: 2025-12-16T03:38:10.261Z)
Latitude
27.13498°
Longitude
-87.10964°
Altitude
1,031.362 km
Speed
7.365 km/s
True Right ascension
03h 29m 53s
True Declination
27° 00' 03"
Sunlit
Object was in full shadow at epoch
Visualization orbit readout
Latitude
Unknown
Longitude
Unknown
Altitude
Unknown
Speed
Unknown
Apparent Right ascension
Unknown
Apparent Declination
Unknown
Sunlit
N/A
Visualization observer readout
Local Sidereal Time
06:20:46
Azimuth
Unknown
Elevation
Unknown
Doppler factor
Unknown
Orbital elements
Apogee altitude
1,136.536 km
Perigee altitude
1,021.755 km
Semi-major axis
7,457.282 km
Eccentricity
0.0077
Inclination
99.1033°
RAAN
227.787°
Arg. of periapsis
131.711°
True anomaly
20.81814°
Mean anomaly
20.5064°
Eccentric anomaly
20.66199°
Mean motion
3.37033 °/min
Orbital period
106.81 mins
BSTAR
0.0010259
Loading maneuver chart data...
Computing Atmospheric mass density...

Documentation

Showing up to 5 results
|